DW6178 Weather Reports


Display with metric or nautical units.
time (UTC)temp
F
wind
direction
speed
MPH
gust
MPH
rain 1hr
in
rain 24hr
in
rain mn
in
humidity
%
barometer
mb
20260507163047 65 239 0.0 2.0 0.00 0.00 0.00 33 1016.5
20260507161546 64 13 0.0 1.0 0.00 0.00 0.00 35 1016.5
20260507160034 63 326 0.0 1.0 0.00 0.00 0.00 37 1016.5
20260507154521 61 278 0.0 1.0 0.00 0.00 0.00 41 1016.5
20260507153017 60 316 0.0 2.0 0.00 0.00 0.00 46 1016.6
20260507151530 59 269 0.0 3.0 0.00 0.00 0.00 47 1016.6
20260507150014 57 212 0.0 1.0 0.00 0.00 0.00 49 1016.7
20260507144510 57 303 0.0 1.0 0.00 0.00 0.00 50 1016.6
20260507143009 56 311 0.0 1.0 0.00 0.00 0.00 50 1016.5
20260507141506 55 311 0.0 1.0 0.00 0.00 0.00 50 1016.5
20260507140004 55 311 0.0 2.0 0.00 0.00 0.00 49 1016.4
20260507134507 55 310 0.0 1.0 0.00 0.00 0.00 47 1016.3
20260507133002 54 310 0.0 1.0 0.00 0.00 0.00 44 1016.3
20260507131543 54 310 0.0 1.0 0.00 0.00 0.00 45 1016.3
20260507130043 54 310 0.0 1.0 0.00 0.00 0.00 44 1016.3
20260507124523 54 310 1.0 2.0 0.00 0.00 0.00 46 1016.3
20260507123023 54 310 0.0 2.0 0.00 0.00 0.00 45 1016.2
20260507121505 55 310 0.0 2.0 0.00 0.00 0.00 45 1016.2
20260507120005 54 310 1.0 2.0 0.00 0.00 0.00 46 1016.4
20260507114544 55 310 1.0 2.0 0.00 0.00 0.00 46 1016.4
20260507113041 54 331 1.0 2.0 0.00 0.00 0.00 50 1016.4
20260507111524 54 316 1.0 3.0 0.00 0.00 0.00 52 1016.5
20260507110024 53 326 0.0 2.0 0.00 0.00 0.00 56 1016.5
20260507104506 54 326 0.0 2.0 0.00 0.00 0.00 55 1016.6
20260507103003 53 328 1.0 2.0 0.00 0.00 0.00 57 1016.6
20260507101548 53 321 0.0 2.0 0.00 0.00 0.00 56 1016.8
20260507100043 53 320 0.0 2.0 0.00 0.00 0.00 59 1016.8
20260507094524 53 320 1.0 2.0 0.00 0.00 0.00 60 1016.9
20260507093022 53 320 1.0 3.0 0.00 0.00 0.00 58 1017.1
20260507091503 53 330 1.0 2.0 0.00 0.00 0.00 55 1017.2
20260507090005 53 330 0.0 2.0 0.00 0.00 0.00 55 1017.3
20260507084544 53 330 1.0 2.0 0.00 0.00 0.00 55 1017.5
20260507083042 53 338 0.0 2.0 0.00 0.00 0.00 55 1017.7
20260507081523 53 337 0.0 1.0 0.00 0.00 0.00 53 1017.7
20260507080022 53 6 0.0 2.0 0.00 0.00 0.00 53 1017.7
20260507074524 54 8 0.0 3.0 0.00 0.00 0.00 52 1017.8
20260507073101 54 300 1.0 2.0 0.00 0.00 0.00 52 1017.9
20260507071540 54 309 1.0 3.0 0.00 0.00 0.00 56 1017.9
20260507070051 53 310 1.0 3.0 0.00 0.00 0.00 57 1018.2
20260507064520 52 321 0.0 0.0 0.00 0.00 0.00 59 1018.2
20260507063018 53 321 0.0 0.0 0.00 0.00 0.00 60 1018.3
20260507061601 53 321 0.0 0.0 0.00 0.00 0.00 61 1018.2
20260507060110 52 321 0.0 0.0 0.00 0.00 0.00 62 1018.3
20260507060002 52 321 0.0 0.0 0.00 0.00 0.00 62 1018.2
20260507054547 53 321 0.0 0.0 0.00 0.00 0.00 61 1018.3
20260507053049 53 321 0.0 0.0 0.00 0.00 0.00 63 1018.4
20260507051534 52 323 0.0 0.0 0.00 0.00 0.00 64 1018.6
20260507050022 52 323 0.0 0.0 0.00 0.00 0.00 67 1018.6
20260507044503 52 323 0.0 1.0 0.00 0.00 0.00 69 1018.6
20260507043003 51 323 0.0 0.0 0.00 0.00 0.00 75 1018.5
20260507041547 51 323 0.0 1.0 0.00 0.00 0.00 75 1018.5
20260507040045 51 323 0.0 1.0 0.00 0.00 0.00 77 1018.6
20260507034547 51 327 0.0 0.0 0.00 0.00 0.00 78 1018.4
20260507033031 51 334 0.0 0.0 0.00 0.00 0.00 77 1018.3
20260507031511 51 322 0.0 1.0 0.00 0.00 0.00 76 1018.1
20260507030010 52 302 0.0 3.0 0.00 0.00 0.00 74 1017.9
20260507024558 52 302 1.0 3.0 0.00 0.00 0.00 73 1017.9
20260507023053 52 307 0.0 0.0 0.00 0.00 0.00 75 1017.9
20260507021546 53 307 0.0 0.0 0.00 0.00 0.00 73 1017.9
20260507020038 54 277 0.0 0.0 0.00 0.00 0.00 70 1017.8
20260507014542 55 277 0.0 0.0 0.00 0.00 0.00 73 1017.8
20260507013036 56 277 0.0 0.0 0.00 0.00 0.00 67 1017.8
20260507011541 55 10 0.0 0.0 0.00 0.00 0.00 71 1017.7
20260507010042 56 252 0.0 1.0 0.00 0.00 0.00 74 1017.7
20260507004534 56 200 0.0 2.0 0.00 0.00 0.00 79 1017.7
20260507003033 56 280 0.0 3.0 0.00 0.00 0.00 76 1017.7
20260507001517 56 218 0.0 2.0 0.00 0.00 0.00 79 1017.6
20260507000014 56 188 1.0 4.0 0.00 0.00 0.00 83 1017.6
20260506234602 56 179 1.0 4.0 0.00 0.00 0.00 81 1017.6
20260506233100 56 179 1.0 5.0 0.00 0.00 0.00 80 1017.6
20260506231535 56 173 1.0 5.0 0.00 0.00 0.00 80 1017.8
20260506230031 56 166 1.0 6.0 0.00 0.00 0.00 77 1018.0
20260506224515 56 188 1.0 5.0 0.00 0.00 0.00 76 1018.1
20260506223011 57 191 2.0 7.0 0.00 0.00 0.00 76 1018.3
20260506221551 57 193 1.0 6.0 0.00 0.00 0.00 76 1018.4
20260506220052 57 200 2.0 5.0 0.00 0.00 0.00 72 1018.5
20260506214530 57 176 3.0 7.0 0.00 0.00 0.00 70 1018.8
20260506213028 57 166 3.0 6.0 0.00 0.00 0.00 70 1018.9
20260506211509 57 224 1.0 6.0 0.00 0.00 0.00 72 1019.1
20260506210006 57 188 2.0 7.0 0.00 0.00 0.00 73 1019.3
20260506204548 57 160 1.0 5.0 0.00 0.00 0.00 74 1019.4
20260506203045 56 169 3.0 6.0 0.00 0.00 0.00 75 1019.4
20260506201527 56 177 2.0 6.0 0.00 0.00 0.00 74 1019.7
20260506200023 57 217 1.0 6.0 0.00 0.00 0.00 73 1019.9
20260506194504 57 141 3.0 6.0 0.00 0.00 0.00 73 1020.1
20260506193002 57 214 1.0 4.0 0.00 0.00 0.00 72 1020.2
20260506191542 57 226 0.0 4.0 0.00 0.00 0.00 71 1020.4
20260506190041 57 217 0.0 4.0 0.00 0.00 0.00 71 1020.4
20260506184526 56 214 0.0 4.0 0.00 0.00 0.00 72 1020.6
20260506183023 56 149 0.0 2.0 0.00 0.00 0.00 72 1020.7
20260506181520 56 200 0.0 2.0 0.00 0.00 0.00 72 1020.8
20260506180017 55 161 0.0 0.0 0.00 0.00 0.00 69 1020.9
20260506174513 53 194 0.0 0.0 0.00 0.00 0.00 70 1021.0
20260506173011 53 158 0.0 0.0 0.00 0.00 0.00 71 1021.0
20260506171511 53 188 0.0 0.0 0.00 0.00 0.00 66 1021.0
20260506170011 53 245 0.0 0.0 0.00 0.00 0.00 63 1021.0
20260506164604 51 136 0.0 0.0 0.00 0.00 0.00 66 1020.8